Jackson, MI

12:07 PM EDT on August 23, 2019 (GMT -0400)
Jackson County-Reynolds

Weather History for KJXN - June, 2019

Change the Weather History Date:

Monday, June 3, 2019

  Actual Average Record
Temperature  
Mean Temperature 56 °F 64 °F  
Max Temperature 67 °F 75 °F 90 °F (1963)
Min Temperature 44 °F 52 °F 37 °F (1977)
Degree Days  
Heating Degree Days 9 4  
Month to date heating degree days 16 12  
Since 1 June heating degree days 16 12  
Since 1 July heating degree days 6652 6614  
Cooling Degree Days 0 2  
Month to date cooling degree days 2 6  
Year to date cooling degree days 12 43  
Since 1 June cooling degree days 2 6  
Growing Degree Days 5 (Base 50)    
Moisture  
Dew Point 37 °F    
Average Humidity 60    
Maximum Humidity 86    
Minimum Humidity 34    
Precipitation  
Precipitation 0.00 in 0.11 in 0.81 in (1989)
Month to date precipitation 0.79 0.31  
Year to date precipitation 12.80 10.91  
Sea Level Pressure  
Sea Level Pressure 30.11 in    
Wind  
Wind Speed 4 mph (NW)    
Max Wind Speed 10 mph    
Max Gust Speed 16 mph    
Visibility 10 miles    
Events      
T = Trace of Precipitation, MM = Missing Value Source: NWS Daily Summary

Daily Weather History Graph

Daily Weather History Graph

Search for Another Location

Airport or City:

Astronomy

Jun. 03, 2019 Rise Set
Actual Time 6:03 AM EDT 9:09 PM EDT
Civil Twilight 5:29 AM EDT 9:43 PM EDT
Nautical Twilight 4:45 AM EDT 10:26 PM EDT
Astronomical Twilight 3:54 AM EDT 11:18 PM EDT
Moon 6:24 AM EDT (6/3) 9:32 PM EDT (6/3)
Length of Visible Light 16h 14m
Length of Day
15h 06m
New Moon, 0% of the Moon is Illuminated
Jun 3
New Moon
Jun 10
First Quarter
Jun 17
Full
Jun 25
Last Quarter
Jul 2
New

Hourly Weather History & Observations

Time (EDT) Temp. Windchill Dew Point Humidity Pressure Visibility Wind Dir Wind Speed Gust Speed Precip Events Conditions
12:56 AM 46.9 °F - 41.0 °F 80% 30.02 in 10.0 mi Calm Calm - N/A   Clear
1:56 AM 50.0 °F - 36.0 °F 59% 30.03 in 10.0 mi NNW 5.8 mph - N/A   Clear
2:56 AM 48.0 °F - 35.1 °F 61% 30.04 in 10.0 mi NW 3.5 mph - N/A   Clear
3:56 AM 46.9 °F - 34.0 °F 61% 30.05 in 10.0 mi NNW 5.8 mph - N/A   Partly Cloudy
4:56 AM 45.0 °F 43.5 °F 34.0 °F 65% 30.07 in 10.0 mi NW 3.5 mph - N/A   Clear
5:56 AM 44.1 °F 40.8 °F 33.1 °F 65% 30.08 in 10.0 mi North 5.8 mph - N/A   Clear
6:56 AM 45.0 °F 41.8 °F 34.0 °F 65% 30.10 in 10.0 mi North 5.8 mph - N/A   Clear
7:56 AM 46.9 °F - 34.0 °F 61% 30.13 in 10.0 mi North 3.5 mph - N/A   Clear
8:56 AM 51.1 °F - 35.1 °F 54% 30.15 in 10.0 mi North 5.8 mph - N/A   Clear
9:56 AM 54.0 °F - 36.0 °F 51% 30.16 in 10.0 mi NNW 8.1 mph - N/A   Clear
10:56 AM 55.9 °F - 35.1 °F 45% 30.18 in 10.0 mi North 5.8 mph - N/A   Clear
11:56 AM 57.9 °F - 36.0 °F 44% 30.17 in 10.0 mi Variable 4.6 mph - N/A   Clear
1:56 PM 63.0 °F - 37.0 °F 38% 30.14 in 10.0 mi Variable 3.5 mph - N/A   Clear
2:56 PM 64.0 °F - 35.1 °F 34% 30.13 in 10.0 mi Calm Calm - N/A   Clear
3:56 PM 64.0 °F - 36.0 °F 35% 30.13 in 10.0 mi Variable 3.5 mph - N/A   Clear
4:56 PM 66.0 °F - 37.0 °F 34% 30.12 in 10.0 mi West 8.1 mph - N/A   Clear
5:56 PM 66.0 °F - 37.9 °F 36% 30.11 in 10.0 mi NNW 5.8 mph - N/A   Clear
6:56 PM 66.0 °F - 39.0 °F 37% 30.10 in 10.0 mi Calm Calm - N/A   Clear
7:56 PM 64.0 °F - 36.0 °F 35% 30.09 in 10.0 mi West 4.6 mph - N/A   Clear
8:56 PM 61.0 °F - 42.1 °F 50% 30.10 in 10.0 mi Calm Calm - N/A   Clear
9:56 PM 55.0 °F - 44.1 °F 67% 30.10 in 10.0 mi Calm Calm - N/A   Clear
10:56 PM 52.0 °F - 46.0 °F 80% 30.12 in 10.0 mi SSW 3.5 mph - N/A   Clear
11:56 PM 50.0 °F - 46.0 °F 86% 30.12 in 10.0 mi Calm Calm - N/A   Clear